Weather History for KAVL - July, 2015

Change the Weather History Date:

Friday, July 17, 2015

  Actual Average Record
Temperature  
Mean Temperature 76 °F 74 °F  
Max Temperature 87 °F 84 °F 95 °F (1980)
Min Temperature 66 °F 64 °F 54 °F (1939)
Degree Days  
Heating Degree Days 0 0  
Month to date heating degree days 0  
Since 1 June heating degree days 14  
Since 1 July heating degree days 0  
Cooling Degree Days 12 9  
Month to date cooling degree days 149  
Year to date cooling degree days 384  
Since 1 June cooling degree days 326  
Growing Degree Days 26 (Base 50)    
Moisture  
Dew Point 65 °F    
Average Humidity 72    
Maximum Humidity 93    
Minimum Humidity 45    
Precipitation  
Precipitation 0.00 in 0.14 in 1.43 in (1984)
Month to date precipitation 2.38  
Year to date precipitation 25.28  
Snow  
Snow 0.00 in 0.00 in 0.00 in ()
Month to date snowfall 0.0  
Since 1 June snowfall 0.0  
Since 1 July snowfall 0.0  
Snow Depth -    
Sea Level Pressure  
Sea Level Pressure 30.07 in    
Wind  
Wind Speed 2 mph (South)    
Max Wind Speed 12 mph    
Max Gust Speed 17 mph    
Visibility 10 miles    
Events      
T = Trace of Precipitation, MM = Missing Value Source: NWS Daily Summary

Daily Weather History Graph

Daily Weather History Graph

Search for Another Location

Airport or City:

Trip Planner

Search our weather history database for the weather conditions in past years. The results will help you decide how hot, cold, wet, or windy it might be!

Date:

Astronomy

Jul. 17, 2015 Rise Set
Actual Time 6:27 AM EDT 8:44 PM EDT
Civil Twilight 5:58 AM EDT 9:13 PM EDT
Nautical Twilight 5:22 AM EDT 9:49 PM EDT
Astronomical Twilight 4:43 AM EDT 10:28 PM EDT
Moon 8:01 AM EDT (7/17) 9:40 PM EDT (7/17)
Length of Visible Light 15h 15m
Length of Day
14h 17m
Waxing Crescent, 3% of the Moon is Illuminated
Jul 17
Waxing Crescent
Jul 24
First Quarter
Jul 31
Full
Aug 6
Last Quarter
Aug 14
New

Hourly Weather History & Observations

Time (EDT) Temp. Heat Index Dew Point Humidity Pressure Visibility Wind Dir Wind Speed Gust Speed Precip Events Conditions
12:54 AM 70.0 °F - 64.9 °F 84% 30.04 in 10.0 mi Calm Calm - N/A   Mostly Cloudy
1:54 AM 69.1 °F - 64.9 °F 87% 30.04 in 10.0 mi Calm Calm - N/A   Partly Cloudy
2:54 AM 68.0 °F - 64.9 °F 90% 30.04 in 10.0 mi Calm Calm - N/A   Partly Cloudy
3:54 AM 66.9 °F - 64.0 °F 90% 30.02 in 10.0 mi Calm Calm - N/A   Partly Cloudy
4:14 AM 68.0 °F - 64.9 °F 90% 30.11 in 10.0 mi Calm Calm - N/A   Mostly Cloudy
4:54 AM 68.0 °F - 64.9 °F 90% 30.03 in 10.0 mi Calm Calm - N/A   Overcast
5:54 AM 66.9 °F - 64.9 °F 93% 30.03 in 10.0 mi SSE 3.5 mph - N/A   Overcast
6:54 AM 68.0 °F - 64.0 °F 87% 30.04 in 10.0 mi Calm Calm - N/A   Scattered Clouds
7:34 AM 68.0 °F - 64.9 °F 90% 30.13 in 10.0 mi Calm Calm - N/A   Mostly Cloudy
7:54 AM 68.0 °F - 64.9 °F 90% 30.07 in 10.0 mi Calm Calm - N/A   Overcast
8:24 AM 70.0 °F - 66.0 °F 87% 30.16 in 10.0 mi Calm Calm - N/A   Mostly Cloudy
8:54 AM 71.1 °F - 66.0 °F 84% 30.08 in 10.0 mi SSE 4.6 mph - N/A   Mostly Cloudy
9:30 AM 73.9 °F - 66.0 °F 76% 30.16 in 10.0 mi South 3.5 mph - N/A   Mostly Cloudy
9:38 AM 73.9 °F - 66.0 °F 76% 30.16 in 10.0 mi Variable 4.6 mph - N/A   Mostly Cloudy
9:47 AM 73.9 °F - 66.0 °F 76% 30.16 in 10.0 mi Calm Calm - N/A   Mostly Cloudy
9:54 AM 75.0 °F - 66.0 °F 73% 30.09 in 10.0 mi South 3.5 mph - N/A   Mostly Cloudy
10:06 AM 75.0 °F - 66.0 °F 73% 30.16 in 10.0 mi Calm Calm - N/A   Overcast
10:28 AM 75.9 °F - 66.0 °F 71% 30.16 in 10.0 mi SSE 5.8 mph - N/A   Scattered Clouds
10:46 AM 77.0 °F - 66.0 °F 69% 30.17 in 10.0 mi SSE 4.6 mph - N/A   Mostly Cloudy
10:54 AM 77.0 °F - 66.9 °F 71% 30.08 in 10.0 mi South 5.8 mph - N/A   Mostly Cloudy
11:38 AM 79.0 °F - 66.0 °F 64% 30.16 in 10.0 mi SSE 5.8 mph - N/A   Partly Cloudy
11:54 AM 79.0 °F - 66.0 °F 64% 30.07 in 10.0 mi South 6.9 mph - N/A   Scattered Clouds
12:54 PM 82.0 °F 84.1 °F 66.0 °F 58% 30.06 in 10.0 mi East 4.6 mph - N/A   Partly Cloudy
1:54 PM 82.0 °F 83.8 °F 64.9 °F 56% 30.04 in 10.0 mi South 10.4 mph - N/A   Partly Cloudy
2:54 PM 84.9 °F 86.6 °F 64.9 °F 51% 30.03 in 10.0 mi South 11.5 mph 17.3 mph N/A   Partly Cloudy
3:54 PM 84.9 °F 86.6 °F 64.9 °F 51% 30.02 in 10.0 mi South 9.2 mph - N/A   Partly Cloudy
4:54 PM 86.0 °F 87.3 °F 64.0 °F 48% 30.01 in 10.0 mi Variable 6.9 mph - N/A   Partly Cloudy
5:54 PM 86.0 °F 87.6 °F 64.9 °F 49% 30.00 in 10.0 mi South 5.8 mph - N/A   Clear
6:54 PM 84.9 °F 86.1 °F 64.0 °F 49% 29.99 in 10.0 mi South 6.9 mph - N/A   Clear
7:54 PM 82.9 °F 84.6 °F 64.9 °F 54% 30.00 in 10.0 mi SSW 6.9 mph - N/A   Clear
8:54 PM 79.0 °F - 66.0 °F 64% 30.02 in 10.0 mi South 3.5 mph - N/A   Partly Cloudy
9:54 PM 78.1 °F - 66.9 °F 68% 30.01 in 10.0 mi Calm Calm - N/A   Clear
10:54 PM 73.9 °F - 68.0 °F 82% 30.04 in 10.0 mi Calm Calm - N/A   Clear
11:54 PM 73.0 °F - 68.0 °F 84% 30.04 in 10.0 mi Calm Calm - N/A   Scattered Clouds